JR5YHL-13 Weather Reports


time (UTC)temp
C
wind
direction
speed
KPH
gust
KPH
rain 1hr
cm
rain 24hr
cm
rain mn
cm
humidity
%
barometer
mb
20260508095614 22 270 4.8 14.5 0.00 0.05 0.00 28 1008.7
20260508094616 22 270 6.4 12.9 0.00 0.05 0.00 27 1008.5
20260508093619 22 270 8.0 12.9 0.00 0.05 0.00 25 1008.3
20260508092621 23 270 4.8 16.1 0.00 0.05 0.00 23 1008.1
20260508091623 23 270 4.8 12.9 0.00 0.05 0.00 21 1007.7
20260508090626 23 225 6.4 17.7 0.00 0.05 0.00 19 1007.7
20260508085628 24 225 3.2 19.3 0.00 0.05 0.00 19 1007.4
20260508084630 24 225 8.0 17.7 0.00 0.05 0.00 19 1007.4
20260508083632 23 270 12.9 25.7 0.00 0.05 0.00 18 1007.3
20260508082634 23 270 9.7 20.9 0.00 0.05 0.00 19 1007.3
20260508081637 23 180 6.4 22.5 0.00 0.05 0.00 19 1007.1
20260508080639 24 270 4.8 19.3 0.00 0.05 0.00 19 1007.0
20260508075641 25 270 6.4 17.7 0.00 0.05 0.00 20 1007.0
20260508074643 25 270 4.8 9.7 0.00 0.05 0.00 22 1006.9
20260508073645 25 293 8.0 16.1 0.00 0.05 0.00 21 1006.8
20260508072647 25 225 4.8 17.7 0.00 0.05 0.00 23 1006.9
20260508071650 25 248 4.8 20.9 0.00 0.05 0.00 23 1006.8
20260508070652 26 270 11.3 27.4 0.00 0.05 0.00 22 1006.8
20260508065654 26 270 16.1 29.0 0.00 0.05 0.00 25 1006.7
20260508064656 26 270 11.3 35.4 0.00 0.05 0.00 25 1006.5
20260508063658 27 293 9.7 30.6 0.00 0.05 0.00 28 1006.6
20260508062700 28 270 12.9 24.1 0.00 0.05 0.00 29 1006.4
20260508061702 28 270 12.9 27.4 0.00 0.05 0.00 31 1006.3
20260508060704 27 225 11.3 25.7 0.00 0.05 0.00 35 1006.6
20260508055706 26 225 6.4 20.9 0.00 0.05 0.00 35 1006.8
20260508054708 26 270 12.9 27.4 0.00 0.05 0.00 36 1007.0
20260508053710 25 315 12.9 24.1 0.00 0.05 0.00 37 1007.1
20260508052713 26 270 6.4 22.5 0.00 0.05 0.00 37 1007.1
20260508051715 26 225 9.7 30.6 0.00 0.05 0.00 38 1007.2
20260508050717 27 270 9.7 22.5 0.00 0.05 0.00 36 1007.1
20260508045719 27 270 6.4 20.9 0.00 0.05 0.00 38 1007.2
20260508044721 26 270 6.4 16.1 0.00 0.05 0.00 40 1007.4
20260508043723 26 270 3.2 11.3 0.00 0.05 0.00 39 1007.4
20260508042725 27 270 6.4 17.7 0.00 0.05 0.00 37 1007.3
20260508041728 27 270 4.8 17.7 0.00 0.05 0.00 39 1007.4
20260508040730 27 315 6.4 24.1 0.00 0.05 0.00 39 1007.5
20260508035732 27 225 6.4 19.3 0.00 0.05 0.00 42 1007.5
20260508034734 27 270 6.4 16.1 0.00 0.05 0.00 42 1007.4
20260508033736 26 270 6.4 17.7 0.00 0.05 0.00 44 1007.6
20260508032739 26 270 8.0 16.1 0.00 0.05 0.00 45 1007.7
20260508031740 26 270 6.4 12.9 0.00 0.05 0.00 46 1007.6
20260508030742 25 0 1.6 11.3 0.00 0.05 0.00 48 1007.7
20260508025744 25 293 3.2 12.9 0.00 0.05 0.00 49 1007.7
20260508024747 25 270 8.0 19.3 0.00 0.05 0.00 54 1007.8
20260508023749 25 135 1.6 8.0 0.00 0.05 0.00 71 1007.8
20260508022751 26 225 1.6 4.8 0.00 0.05 0.00 69 1007.8
20260508021753 26 270 3.2 6.4 0.00 0.05 0.00 70 1007.8
20260508020756 25 90 1.6 8.0 0.00 0.05 0.00 74 1007.9
20260508015758 25 90 3.2 8.0 0.00 0.05 0.00 74 1008.2
20260508014800 26 225 1.6 4.8 0.00 0.05 0.00 76 1008.2
20260508013802 26 0 3.2 6.4 0.00 0.05 0.00 75 1008.3
20260508012805 25 248 0.0 3.2 0.00 0.05 0.00 83 1008.4
20260508011807 25 45 3.2 8.0 0.00 0.05 0.00 88 1008.2
20260508010809 24 90 1.6 3.2 0.00 0.05 0.00 91 1008.3
20260508005811 23 225 1.6 4.8 0.00 0.05 0.00 91 1008.6
20260508004814 23 270 0.0 6.4 0.00 0.05 0.00 94 1008.5
20260508003816 23 180 0.0 4.8 0.00 0.05 0.00 98 1008.6
20260508002818 23 315 0.0 3.2 0.00 0.05 0.00 99 1008.7
20260508001820 22 315 0.0 1.6 0.00 0.05 0.00 99 1008.7
20260508000823 22 180 0.0 3.2 0.00 0.05 0.00 99 1008.9
20260507235825 22 293 1.6 6.4 0.00 0.05 0.00 99 1008.9
20260507234827 21 225 0.0 3.2 0.00 0.05 0.00 99 1009.0
20260507233829 21 225 0.0 3.2 0.00 0.05 0.00 99 1009.0
20260507232831 21 248 1.6 4.8 0.00 0.05 0.00 99 1008.9
20260507231834 21 270 1.6 4.8 0.00 0.05 0.00 99 1009.1
20260507230836 20 225 1.6 3.2 0.00 0.05 0.00 99 1009.2
20260507225838 20 270 0.0 3.2 0.00 0.05 0.00 99 1008.9
20260507224840 20 225 0.0 3.2 0.00 0.05 0.00 99 1009.2
20260507223843 20 225 0.0 3.2 0.00 0.05 0.00 99 1009.0
20260507222845 20 248 1.6 4.8 0.00 0.05 0.00 99 1009.3
20260507221847 20 225 0.0 3.2 0.00 0.05 0.00 99 1009.0
20260507220849 20 270 0.0 3.2 0.00 0.05 0.00 99 1009.2
20260507215851 19 135 3.2 3.2 0.00 0.05 0.00 99 1009.2
20260507214853 19 45 0.0 4.8 0.00 0.05 0.00 99 1009.2
20260507213855 18 90 1.6 6.4 0.00 0.05 0.00 99 1009.1
20260507212857 19 180 0.0 6.4 0.00 0.05 0.00 99 1009.6
20260507211859 19 225 0.0 8.0 0.00 0.05 0.00 99 1009.8
20260507210901 19 180 3.2 8.0 0.00 0.05 0.00 99 1009.9
20260507205903 18 315 0.0 4.8 0.00 0.05 0.00 99 1009.8
20260507204905 18 225 3.2 8.0 0.00 0.05 0.00 99 1009.6
20260507203907 18 225 3.2 8.0 0.00 0.05 0.00 99 1009.3
20260507202909 19 270 1.6 6.4 0.00 0.05 0.00 99 1009.2
20260507201912 19 225 3.2 9.7 0.00 0.05 0.00 99 1009.2
20260507200914 19 315 3.2 8.0 0.00 0.05 0.00 99 1009.4
20260507195916 19 225 0.0 3.2 0.00 0.05 0.00 99 1009.2
20260507194918 19 270 0.0 3.2 0.00 0.05 0.00 99 1009.2
20260507193920 19 270 0.0 1.6 0.00 0.05 0.00 99 1009.3
20260507192922 20 225 0.0 1.6 0.00 0.05 0.00 99 1009.4
20260507191924 19 45 0.0 1.6 0.00 0.05 0.00 99 1009.5
20260507190927 19 225 0.0 3.2 0.00 0.05 0.00 99 1009.8
20260507185929 20 225 0.0 3.2 0.00 0.05 0.00 99 1009.8
20260507184931 20 270 0.0 3.2 0.00 0.05 0.00 99 1009.9
20260507183933 19 225 0.0 0.0 0.00 0.05 0.00 99 1009.8
20260507182935 20 225 0.0 0.0 0.00 0.05 0.00 99 1009.7
20260507181938 20 225 0.0 0.0 0.00 0.05 0.00 99 1009.7
20260507180940 20 225 0.0 1.6 0.00 0.05 0.00 99 1009.9
20260507175942 20 225 0.0 3.2 0.00 0.05 0.00 99 1009.9
20260507174944 20 270 1.6 3.2 0.00 0.05 0.00 99 1010.2
20260507173946 20 225 0.0 3.2 0.00 0.05 0.00 99 1010.2
20260507172949 20 225 0.0 0.0 0.00 0.05 0.00 99 1010.1
20260507171951 20 270 0.0 1.6 0.00 0.05 0.00 99 1010.1
20260507170953 20 135 0.0 3.2 0.00 0.05 0.00 99 1009.9
20260507165955 20 225 0.0 0.0 0.00 0.05 0.00 99 1010.1
20260507164958 20 225 0.0 0.0 0.00 0.05 0.00 99 1010.4
20260507164000 20 180 0.0 1.6 0.00 0.05 0.00 99 1010.4
20260507163002 20 0 0.0 1.6 0.00 0.05 0.00 99 1010.4
20260507162004 20 225 0.0 0.0 0.00 0.05 0.00 99 1010.7
20260507161006 20 225 0.0 0.0 0.00 0.05 0.00 99 1010.8
20260507160008 20 225 0.0 0.0 0.00 0.05 0.00 99 1011.0
20260507155010 20 225 0.0 0.0 0.00 0.05 0.00 99 1011.1
20260507154012 20 225 0.0 1.6 0.00 0.05 0.00 99 1011.1
20260507153014 20 225 0.0 0.0 0.00 0.05 0.00 99 1011.2
20260507152016 20 225 0.0 1.6 0.00 0.05 0.00 99 1011.2
20260507151019 20 90 0.0 1.6 0.00 0.05 0.00 99 1011.2
20260507150021 20 0 0.0 3.2 0.00 0.05 0.00 99 1011.3
20260507145023 21 90 0.0 0.0 0.00 0.05 0.00 99 1011.5
20260507144025 21 225 0.0 0.0 0.00 0.05 0.00 99 1011.6
20260507143027 21 225 0.0 0.0 0.03 0.05 0.00 99 1011.7
20260507142030 21 90 0.0 1.6 0.05 0.05 0.00 99 1011.7
20260507141032 21 0 0.0 1.6 0.05 0.05 0.00 99 1011.6
20260507140034 21 225 0.0 0.0 0.05 0.05 0.00 99 1011.6
20260507135036 21 225 0.0 1.6 0.05 0.05 0.00 99 1011.5
20260507134039 21 225 0.0 0.0 0.05 0.05 0.00 99 1011.5
20260507133041 21 270 0.0 0.0 0.03 0.03 0.00 99 1011.6
20260507132043 21 225 0.0 0.0 0.00 0.00 0.00 99 1011.7
20260507131045 21 225 0.0 1.6 0.00 0.00 0.00 99 1011.8
20260507130047 21 45 0.0 3.2 0.00 0.00 0.00 99 1011.9
20260507125049 21 315 0.0 0.0 0.00 0.00 0.00 99 1011.7
20260507124051 21 180 0.0 1.6 0.00 0.00 0.00 99 1011.8
20260507123054 21 0 0.0 0.0 0.00 0.00 0.00 99 1011.8
20260507122056 21 45 0.0 1.6 0.00 0.00 0.00 99 1011.8
20260507121058 21 90 0.0 1.6 0.00 0.00 0.00 99 1011.7
20260507120100 21 135 0.0 3.2 0.00 0.00 0.00 99 1011.9
20260507115102 22 225 0.0 1.6 0.00 0.00 0.00 99 1011.8
20260507114104 22 225 0.0 0.0 0.00 0.00 0.00 99 1011.7
20260507113107 22 0 0.0 1.6 0.00 0.00 0.00 99 1011.6
20260507112109 22 225 0.0 1.6 0.00 0.00 0.00 99 1011.6
20260507111111 22 0 0.0 3.2 0.00 0.00 0.00 99 1011.5
20260507110113 22 225 0.0 3.2 0.00 0.00 0.00 99 1011.5
20260507105115 22 90 0.0 3.2 0.00 0.00 0.00 99 1011.3
20260507104118 22 180 0.0 3.2 0.00 0.00 0.00 99 1011.3
20260507103120 22 225 0.0 1.6 0.00 0.00 0.00 99 1011.3
20260507102122 22 135 0.0 3.2 0.00 0.00 0.00 99 1011.3
20260507101124 22 180 0.0 1.6 0.00 0.00 0.00 99 1011.2